Year,Month,Day,Hour,Minute,Value (Times are PST for temperature in C)
2020,08,18,00,00,17.40
2020,08,18,00,01,17.40
2020,08,18,00,02,17.40
2020,08,18,00,03,17.40
2020,08,18,00,04,17.40
2020,08,18,00,05,17.40
2020,08,18,00,06,17.40
2020,08,18,00,07,17.40
2020,08,18,00,08,17.40
2020,08,18,00,09,17.40
2020,08,18,00,10,17.40
2020,08,18,00,11,17.40
2020,08,18,00,12,17.40
2020,08,18,00,13,17.40
2020,08,18,00,14,17.40
2020,08,18,00,15,17.40
2020,08,18,00,16,17.40
2020,08,18,00,17,17.40
2020,08,18,00,18,17.40
2020,08,18,00,19,17.40
2020,08,18,00,20,17.30
2020,08,18,00,21,17.30
2020,08,18,00,22,17.30
2020,08,18,00,23,17.30
2020,08,18,00,24,17.30
2020,08,18,00,25,17.30
2020,08,18,00,26,17.30
2020,08,18,00,27,17.30
2020,08,18,00,28,17.30
2020,08,18,00,29,17.30
2020,08,18,00,30,17.30
2020,08,18,00,31,17.30
2020,08,18,00,32,17.30
2020,08,18,00,33,17.30
2020,08,18,00,34,17.30
2020,08,18,00,35,17.30
2020,08,18,00,36,17.30
2020,08,18,00,37,17.30
2020,08,18,00,38,17.30
2020,08,18,00,39,17.20
2020,08,18,00,40,17.20
2020,08,18,00,41,17.10
2020,08,18,00,42,17.00
2020,08,18,00,43,16.90
2020,08,18,00,44,16.90
2020,08,18,00,45,16.80
2020,08,18,00,46,16.80
2020,08,18,00,47,16.70
2020,08,18,00,48,16.70
2020,08,18,00,49,16.70
2020,08,18,00,50,16.70
2020,08,18,00,51,16.60
2020,08,18,00,52,16.50
2020,08,18,00,53,16.40
2020,08,18,00,54,16.40
2020,08,18,00,55,16.40
2020,08,18,00,56,16.30
2020,08,18,00,57,16.30
2020,08,18,00,58,16.20
2020,08,18,00,59,16.20
2020,08,18,01,00,16.10
2020,08,18,01,01,16.10
2020,08,18,01,02,16.10
2020,08,18,01,03,16.10
2020,08,18,01,04,16.10
2020,08,18,01,05,16.10
2020,08,18,01,06,16.10
2020,08,18,01,07,16.00
2020,08,18,01,08,15.90
2020,08,18,01,09,15.90
2020,08,18,01,10,15.90
2020,08,18,01,11,15.90
2020,08,18,01,12,15.80
2020,08,18,01,13,15.80
2020,08,18,01,14,15.80
2020,08,18,01,15,15.80
2020,08,18,01,16,15.80
2020,08,18,01,17,15.80
2020,08,18,01,18,15.80
2020,08,18,01,19,15.80
2020,08,18,01,20,15.80
2020,08,18,01,21,15.80
2020,08,18,01,22,15.80
2020,08,18,01,23,15.80
2020,08,18,01,24,15.80
2020,08,18,01,25,15.80
2020,08,18,01,26,15.80
2020,08,18,01,27,15.80
2020,08,18,01,28,15.90
2020,08,18,01,29,15.90
2020,08,18,01,30,15.90
2020,08,18,01,31,15.90
2020,08,18,01,32,15.90
2020,08,18,01,33,15.90
2020,08,18,01,34,15.80
2020,08,18,01,35,15.80
2020,08,18,01,36,15.80
2020,08,18,01,37,15.80
2020,08,18,01,38,15.80
2020,08,18,01,39,15.80
2020,08,18,01,40,15.80
2020,08,18,01,41,15.80
2020,08,18,01,42,15.80
2020,08,18,01,43,15.80
2020,08,18,01,44,15.80
2020,08,18,01,45,15.80
2020,08,18,01,46,15.80
2020,08,18,01,47,15.80
2020,08,18,01,48,15.80
2020,08,18,01,49,15.90
2020,08,18,01,50,15.90
2020,08,18,01,51,15.90
2020,08,18,01,52,15.90
2020,08,18,01,53,15.90
2020,08,18,01,54,15.90
2020,08,18,01,55,15.90
2020,08,18,01,56,15.90
2020,08,18,01,57,15.90
2020,08,18,01,58,16.00
2020,08,18,01,59,16.10
2020,08,18,02,00,16.10
2020,08,18,02,01,16.10
2020,08,18,02,02,16.10
2020,08,18,02,03,16.10
2020,08,18,02,04,16.10
2020,08,18,02,05,16.10
2020,08,18,02,06,16.10
2020,08,18,02,07,16.10
2020,08,18,02,08,16.10
2020,08,18,02,09,16.10
2020,08,18,02,10,16.10
2020,08,18,02,11,16.10
2020,08,18,02,12,16.00
2020,08,18,02,13,15.90
2020,08,18,02,14,15.90
2020,08,18,02,15,15.90
2020,08,18,02,16,15.90
2020,08,18,02,17,15.90
2020,08,18,02,18,15.90
2020,08,18,02,19,15.80
2020,08,18,02,20,15.80
2020,08,18,02,21,15.80
2020,08,18,02,22,15.80
2020,08,18,02,23,15.80
2020,08,18,02,24,15.80
2020,08,18,02,25,15.70
2020,08,18,02,26,15.70
2020,08,18,02,27,15.70
2020,08,18,02,28,15.70
2020,08,18,02,29,15.60
2020,08,18,02,30,15.60
2020,08,18,02,31,15.60
2020,08,18,02,32,15.60
2020,08,18,02,33,15.60
2020,08,18,02,34,15.60
2020,08,18,02,35,15.60
2020,08,18,02,36,15.60
2020,08,18,02,37,15.60
2020,08,18,02,38,15.60
2020,08,18,02,39,15.60
2020,08,18,02,40,15.60
2020,08,18,02,41,15.60
2020,08,18,02,42,15.70
2020,08,18,02,43,15.70
2020,08,18,02,44,15.70
2020,08,18,02,45,15.70
2020,08,18,02,46,15.70
2020,08,18,02,47,15.70
2020,08,18,02,48,15.70
2020,08,18,02,49,15.70
2020,08,18,02,50,15.70
2020,08,18,02,51,15.70
2020,08,18,02,52,15.70
2020,08,18,02,53,15.80
2020,08,18,02,54,15.80
2020,08,18,02,55,15.80
2020,08,18,02,56,15.80
2020,08,18,02,57,15.80
2020,08,18,02,58,15.80
2020,08,18,02,59,15.80
2020,08,18,03,00,15.80
2020,08,18,03,01,15.80
2020,08,18,03,02,15.80
2020,08,18,03,03,15.80
2020,08,18,03,04,15.80
2020,08,18,03,05,15.80
2020,08,18,03,06,15.80
2020,08,18,03,07,15.80
2020,08,18,03,08,15.80
2020,08,18,03,09,15.80
2020,08,18,03,10,15.80
2020,08,18,03,11,15.80
2020,08,18,03,12,15.80
2020,08,18,03,13,15.80
2020,08,18,03,14,15.80
2020,08,18,03,15,15.80
2020,08,18,03,16,15.80
2020,08,18,03,17,15.80
2020,08,18,03,18,15.80
2020,08,18,03,19,15.80
2020,08,18,03,20,15.80
2020,08,18,03,21,15.80
2020,08,18,03,22,15.80
2020,08,18,03,23,15.80
2020,08,18,03,24,15.80
2020,08,18,03,25,15.80
2020,08,18,03,26,15.80
2020,08,18,03,27,15.80
2020,08,18,03,28,15.80
2020,08,18,03,29,15.80
2020,08,18,03,30,15.80
2020,08,18,03,31,15.80
2020,08,18,03,32,15.80
2020,08,18,03,33,15.80
2020,08,18,03,34,15.80
2020,08,18,03,35,15.80
2020,08,18,03,36,15.80
2020,08,18,03,37,15.80
2020,08,18,03,38,15.80
2020,08,18,03,39,15.80
2020,08,18,03,40,15.80
2020,08,18,03,41,15.80
2020,08,18,03,42,15.80
2020,08,18,03,43,15.80
2020,08,18,03,44,15.80
2020,08,18,03,45,15.80
2020,08,18,03,46,15.80
2020,08,18,03,47,15.80
2020,08,18,03,48,15.80
2020,08,18,03,49,15.80
2020,08,18,03,50,15.80
2020,08,18,03,51,15.80
2020,08,18,03,52,15.80
2020,08,18,03,53,15.80
2020,08,18,03,54,15.80
2020,08,18,03,55,15.80
2020,08,18,03,56,15.80
2020,08,18,03,57,15.80
2020,08,18,03,58,15.80
2020,08,18,03,59,15.90
2020,08,18,04,00,15.90
2020,08,18,04,01,15.90
2020,08,18,04,02,15.90
2020,08,18,04,03,15.90
2020,08,18,04,04,15.90
2020,08,18,04,05,15.90
2020,08,18,04,06,15.90
2020,08,18,04,07,15.90
2020,08,18,04,08,15.90
2020,08,18,04,09,15.90
2020,08,18,04,10,15.90
2020,08,18,04,11,15.90
2020,08,18,04,12,15.90
2020,08,18,04,13,16.00
2020,08,18,04,14,16.10
2020,08,18,04,15,16.10
2020,08,18,04,16,16.10
2020,08,18,04,17,16.10
2020,08,18,04,18,16.10
2020,08,18,04,19,16.10
2020,08,18,04,20,16.10
2020,08,18,04,21,16.10
2020,08,18,04,22,16.10
2020,08,18,04,23,16.20
2020,08,18,04,24,16.20
2020,08,18,04,25,16.20
2020,08,18,04,26,16.20
2020,08,18,04,27,16.20
2020,08,18,04,28,16.30
2020,08,18,04,29,16.30
2020,08,18,04,30,16.30
2020,08,18,04,31,16.30
2020,08,18,04,32,16.40
2020,08,18,04,33,16.40
2020,08,18,04,34,16.40
2020,08,18,04,35,16.40
2020,08,18,04,36,16.40
2020,08,18,04,37,16.40
2020,08,18,04,38,16.50
2020,08,18,04,39,16.60
2020,08,18,04,40,16.60
2020,08,18,04,41,16.60
2020,08,18,04,42,16.60
2020,08,18,04,43,16.60
2020,08,18,04,44,16.60
2020,08,18,04,45,16.60
2020,08,18,04,46,16.60
2020,08,18,04,47,16.70
2020,08,18,04,48,16.70
2020,08,18,04,49,16.70
2020,08,18,04,50,16.70
2020,08,18,04,51,16.70
2020,08,18,04,52,16.70
2020,08,18,04,53,16.70
2020,08,18,04,54,16.70
2020,08,18,04,55,16.70
2020,08,18,04,56,16.80
2020,08,18,04,57,16.80
2020,08,18,04,58,16.80
2020,08,18,04,59,16.90
2020,08,18,05,00,16.90
2020,08,18,05,01,17.00
2020,08,18,05,02,17.00
2020,08,18,05,03,17.00
2020,08,18,05,04,17.10
2020,08,18,05,05,17.10
2020,08,18,05,06,17.20
2020,08,18,05,07,17.20
2020,08,18,05,08,17.20
2020,08,18,05,09,17.20
2020,08,18,05,10,17.20
2020,08,18,05,11,17.30
2020,08,18,05,12,17.30
2020,08,18,05,13,17.30
2020,08,18,05,14,17.30
2020,08,18,05,15,17.30
2020,08,18,05,16,17.30
2020,08,18,05,17,17.30
2020,08,18,05,18,17.40
2020,08,18,05,19,17.40
2020,08,18,05,20,17.40
2020,08,18,05,21,17.50
2020,08,18,05,22,17.50
2020,08,18,05,23,17.50
2020,08,18,05,24,17.50
2020,08,18,05,25,17.60
2020,08,18,05,26,17.60
2020,08,18,05,27,17.60
2020,08,18,05,28,17.70
2020,08,18,05,29,17.70
2020,08,18,05,30,17.70
2020,08,18,05,31,17.70
2020,08,18,05,32,17.80
2020,08,18,05,33,17.80
2020,08,18,05,34,17.80
2020,08,18,05,35,17.80
2020,08,18,05,36,17.80
2020,08,18,05,37,17.80
2020,08,18,05,38,17.90
2020,08,18,05,39,17.90
2020,08,18,05,40,17.90
2020,08,18,05,41,17.90
2020,08,18,05,42,17.90
2020,08,18,05,43,17.90
2020,08,18,05,44,17.90
2020,08,18,05,45,17.90
2020,08,18,05,46,18.00
2020,08,18,05,47,18.10
2020,08,18,05,48,18.10
2020,08,18,05,49,18.20
2020,08,18,05,50,18.20
2020,08,18,05,51,18.20
2020,08,18,05,52,18.20
2020,08,18,05,53,18.20
2020,08,18,05,54,18.20
2020,08,18,05,55,18.20
2020,08,18,05,56,18.30
2020,08,18,05,57,18.30
2020,08,18,05,58,18.30
2020,08,18,05,59,18.30
2020,08,18,06,00,18.30
2020,08,18,06,01,18.30
2020,08,18,06,02,18.30
2020,08,18,06,03,18.30
2020,08,18,06,04,18.30
2020,08,18,06,05,18.40
2020,08,18,06,06,18.40
2020,08,18,06,07,18.30
2020,08,18,06,08,18.30
2020,08,18,06,09,18.30
2020,08,18,06,10,18.30
2020,08,18,06,11,18.30
2020,08,18,06,12,18.30
2020,08,18,06,13,18.30
2020,08,18,06,14,18.30
2020,08,18,06,15,18.30
2020,08,18,06,16,18.30
2020,08,18,06,17,18.30
2020,08,18,06,18,18.30
2020,08,18,06,19,18.20
2020,08,18,06,20,18.20
2020,08,18,06,21,18.20
2020,08,18,06,22,18.20
2020,08,18,06,23,18.20
2020,08,18,06,24,18.20
2020,08,18,06,25,18.20
2020,08,18,06,26,18.20
2020,08,18,06,27,18.20
2020,08,18,06,28,18.20
2020,08,18,06,29,18.20
2020,08,18,06,30,18.20
2020,08,18,06,31,18.20
2020,08,18,06,32,18.20
2020,08,18,06,33,18.20
2020,08,18,06,34,18.20
2020,08,18,06,35,18.20
2020,08,18,06,36,18.30
2020,08,18,06,37,18.30
2020,08,18,06,38,18.30
2020,08,18,06,39,18.30
2020,08,18,06,40,18.30
2020,08,18,06,41,18.30
2020,08,18,06,42,18.40
2020,08,18,06,43,18.40
2020,08,18,06,44,18.40
2020,08,18,06,45,18.50
2020,08,18,06,46,18.50
2020,08,18,06,47,18.60
2020,08,18,06,48,18.60
2020,08,18,06,49,18.70
2020,08,18,06,50,18.70
2020,08,18,06,51,18.70
2020,08,18,06,52,18.80
2020,08,18,06,53,18.80
2020,08,18,06,54,18.90
2020,08,18,06,55,18.90
2020,08,18,06,56,18.90
2020,08,18,06,57,18.90
2020,08,18,06,58,19.10
2020,08,18,06,59,19.10
2020,08,18,07,00,19.10
2020,08,18,07,01,19.20
2020,08,18,07,02,19.20
2020,08,18,07,03,19.30
2020,08,18,07,04,19.40
2020,08,18,07,05,19.40
2020,08,18,07,06,19.50
2020,08,18,07,07,19.50
2020,08,18,07,08,19.60
2020,08,18,07,09,19.70
2020,08,18,07,10,19.70
2020,08,18,07,11,19.80
2020,08,18,07,12,19.80
2020,08,18,07,13,19.80
2020,08,18,07,14,19.80
2020,08,18,07,15,19.90
2020,08,18,07,16,19.90
2020,08,18,07,17,19.90
2020,08,18,07,18,19.90
2020,08,18,07,19,19.90
2020,08,18,07,20,19.90
2020,08,18,07,21,19.90
2020,08,18,07,22,19.90
2020,08,18,07,23,19.90
2020,08,18,07,24,19.90
2020,08,18,07,25,19.90
2020,08,18,07,26,19.90
2020,08,18,07,27,19.90
2020,08,18,07,28,19.90
2020,08,18,07,29,19.90
2020,08,18,07,30,19.90
2020,08,18,07,31,20.00
2020,08,18,07,32,20.10
2020,08,18,07,33,20.10
2020,08,18,07,34,20.10
2020,08,18,07,35,20.10
2020,08,18,07,36,20.10
2020,08,18,07,37,20.10
2020,08,18,07,38,20.10
2020,08,18,07,39,20.10
2020,08,18,07,40,20.10
2020,08,18,07,41,20.10
2020,08,18,07,42,20.10
2020,08,18,07,43,20.10
2020,08,18,07,44,20.10
2020,08,18,07,45,20.10
2020,08,18,07,46,20.00
2020,08,18,07,47,19.90
2020,08,18,07,48,19.90
2020,08,18,07,49,19.90
2020,08,18,07,50,19.90
2020,08,18,07,51,19.90
2020,08,18,07,52,19.90
2020,08,18,07,53,19.90
2020,08,18,07,54,19.90
2020,08,18,07,55,19.80
2020,08,18,07,56,19.80
2020,08,18,07,57,19.80
2020,08,18,07,58,19.80
2020,08,18,07,59,19.80
2020,08,18,08,00,19.80
2020,08,18,08,01,19.80
2020,08,18,08,02,19.80
2020,08,18,08,03,19.80
2020,08,18,08,04,19.80
2020,08,18,08,05,19.80
2020,08,18,08,06,19.80
2020,08,18,08,07,19.80
2020,08,18,08,08,19.80
2020,08,18,08,09,19.80
2020,08,18,08,10,19.80
2020,08,18,08,11,19.80
2020,08,18,08,12,19.70
2020,08,18,08,13,19.60
2020,08,18,08,14,19.40
2020,08,18,08,15,19.20
2020,08,18,08,16,19.00
2020,08,18,08,17,18.80
2020,08,18,08,18,18.60
2020,08,18,08,19,18.40
2020,08,18,08,20,18.20
2020,08,18,08,21,18.10
2020,08,18,08,22,17.90
2020,08,18,08,23,17.80
2020,08,18,08,24,17.70
2020,08,18,08,25,17.70
2020,08,18,08,26,17.70
2020,08,18,08,27,17.70
2020,08,18,08,28,17.80
2020,08,18,08,29,17.80
2020,08,18,08,30,17.90
2020,08,18,08,31,18.00
2020,08,18,08,32,18.10
2020,08,18,08,33,18.20
2020,08,18,08,34,18.20
2020,08,18,08,35,18.30
2020,08,18,08,36,18.40
2020,08,18,08,37,18.50
2020,08,18,08,38,18.60
2020,08,18,08,39,18.70
2020,08,18,08,40,18.70
2020,08,18,08,41,18.90
2020,08,18,08,42,19.00
2020,08,18,08,43,19.10
2020,08,18,08,44,19.30
2020,08,18,08,45,19.40
2020,08,18,08,46,19.50
2020,08,18,08,47,19.70
2020,08,18,08,48,19.80
2020,08,18,08,49,19.90
2020,08,18,08,50,20.00
2020,08,18,08,51,20.10
2020,08,18,08,52,20.20
2020,08,18,08,53,20.30
2020,08,18,08,54,20.40
2020,08,18,08,55,20.50
2020,08,18,08,56,20.60
2020,08,18,08,57,20.60
2020,08,18,08,58,20.70
2020,08,18,08,59,20.70
2020,08,18,09,00,20.70
2020,08,18,09,01,20.80
2020,08,18,09,02,20.80
2020,08,18,09,03,20.90
2020,08,18,09,04,20.90
2020,08,18,09,05,20.90
2020,08,18,09,06,20.90
2020,08,18,09,07,20.90
2020,08,18,09,08,20.90
2020,08,18,09,09,20.90
2020,08,18,09,10,20.90
2020,08,18,09,11,21.00
2020,08,18,09,12,21.00
2020,08,18,09,13,20.90
2020,08,18,09,14,20.90
2020,08,18,09,15,20.90
2020,08,18,09,16,20.90
2020,08,18,09,17,20.90
2020,08,18,09,18,20.90
2020,08,18,09,19,21.00
2020,08,18,09,20,21.00
2020,08,18,09,21,21.00
2020,08,18,09,22,21.00
2020,08,18,09,23,21.10
2020,08,18,09,24,21.10
2020,08,18,09,25,21.20
2020,08,18,09,26,21.20
2020,08,18,09,27,21.20
2020,08,18,09,28,21.30
2020,08,18,09,29,21.30
2020,08,18,09,30,21.30
2020,08,18,09,31,21.30
2020,08,18,09,32,21.30
2020,08,18,09,33,21.30
2020,08,18,09,34,21.30
2020,08,18,09,35,21.30
2020,08,18,09,36,21.30
2020,08,18,09,37,21.30
2020,08,18,09,38,21.30
2020,08,18,09,39,21.30
2020,08,18,09,40,21.30
2020,08,18,09,41,21.30
2020,08,18,09,42,21.30
2020,08,18,09,43,21.30
2020,08,18,09,44,21.30
2020,08,18,09,45,21.30
2020,08,18,09,46,21.30
2020,08,18,09,47,21.30
2020,08,18,09,48,21.30
2020,08,18,09,49,21.30
2020,08,18,09,50,21.40
2020,08,18,09,51,21.40
2020,08,18,09,52,21.50
2020,08,18,09,53,21.60
2020,08,18,09,54,21.60
2020,08,18,09,55,21.50
2020,08,18,09,56,21.40
2020,08,18,09,57,21.40
2020,08,18,09,58,21.50
2020,08,18,09,59,21.60
2020,08,18,10,00,21.60
2020,08,18,10,01,21.60
2020,08,18,10,02,21.60
2020,08,18,10,03,21.60
2020,08,18,10,04,21.60
2020,08,18,10,05,21.60
2020,08,18,10,06,21.60
2020,08,18,10,07,21.60
2020,08,18,10,08,21.70
2020,08,18,10,09,21.70
2020,08,18,10,10,21.80
2020,08,18,10,11,21.80
2020,08,18,10,12,21.80
2020,08,18,10,13,21.90
2020,08,18,10,14,21.90
2020,08,18,10,15,21.90
2020,08,18,10,16,22.00
2020,08,18,10,17,22.00
2020,08,18,10,18,22.00
2020,08,18,10,19,22.00
2020,08,18,10,20,21.90
2020,08,18,10,21,21.90
2020,08,18,10,22,21.90
2020,08,18,10,23,21.90
2020,08,18,10,24,21.90
2020,08,18,10,25,22.00
2020,08,18,10,26,22.00
2020,08,18,10,27,22.00
2020,08,18,10,28,22.10
2020,08,18,10,29,22.10
2020,08,18,10,30,22.10
2020,08,18,10,31,22.20
2020,08,18,10,32,22.20
2020,08,18,10,33,22.20
2020,08,18,10,34,22.20
2020,08,18,10,35,22.30
2020,08,18,10,36,22.30
2020,08,18,10,37,22.30
2020,08,18,10,38,22.40
2020,08,18,10,39,22.40
2020,08,18,10,40,22.40
2020,08,18,10,41,22.40
2020,08,18,10,42,22.50
2020,08,18,10,43,22.50
2020,08,18,10,44,22.50
2020,08,18,10,45,22.50
2020,08,18,10,46,22.60
2020,08,18,10,47,22.60
2020,08,18,10,48,22.70
2020,08,18,10,49,22.60
2020,08,18,10,50,22.60
2020,08,18,10,51,22.70
2020,08,18,10,52,22.70
2020,08,18,10,53,22.70
2020,08,18,10,54,22.70
2020,08,18,10,55,22.70
2020,08,18,10,56,22.70
2020,08,18,10,57,22.70
2020,08,18,10,58,22.70
2020,08,18,10,59,22.80
2020,08,18,11,00,22.80
2020,08,18,11,01,22.80
2020,08,18,11,02,22.90
2020,08,18,11,03,22.90
2020,08,18,11,04,22.90
2020,08,18,11,05,23.00
2020,08,18,11,06,23.10
2020,08,18,11,07,23.20
2020,08,18,11,08,23.30
2020,08,18,11,09,23.30
2020,08,18,11,10,23.30
2020,08,18,11,11,23.30
2020,08,18,11,12,23.30
2020,08,18,11,13,23.40
2020,08,18,11,14,23.40
2020,08,18,11,15,23.40
2020,08,18,11,16,23.40
2020,08,18,11,17,23.40
2020,08,18,11,18,23.40
2020,08,18,11,19,23.40
2020,08,18,11,20,23.40
2020,08,18,11,21,23.40
2020,08,18,11,22,23.40
2020,08,18,11,23,23.40
2020,08,18,11,24,23.40
2020,08,18,11,25,23.60
2020,08,18,11,26,23.60
2020,08,18,11,27,23.50
2020,08,18,11,28,23.40
2020,08,18,11,29,23.40
2020,08,18,11,30,23.40
2020,08,18,11,31,23.40
2020,08,18,11,32,23.40
2020,08,18,11,33,23.40
2020,08,18,11,34,23.40
2020,08,18,11,35,23.40
2020,08,18,11,36,23.30
2020,08,18,11,37,23.30
2020,08,18,11,38,23.20
2020,08,18,11,39,23.20
2020,08,18,11,40,23.10
2020,08,18,11,41,23.10
2020,08,18,11,42,23.20
2020,08,18,11,43,23.30
2020,08,18,11,44,23.30
2020,08,18,11,45,23.30
2020,08,18,11,46,23.30
2020,08,18,11,47,23.30
2020,08,18,11,48,23.40
2020,08,18,11,49,23.40
2020,08,18,11,50,23.40
2020,08,18,11,51,23.40
2020,08,18,11,52,23.50
2020,08,18,11,53,23.60
2020,08,18,11,54,23.60
2020,08,18,11,55,23.70
2020,08,18,11,56,23.70
2020,08,18,11,57,23.70
2020,08,18,11,58,23.60
2020,08,18,11,59,23.60
2020,08,18,12,00,23.60
2020,08,18,12,01,23.60
2020,08,18,12,02,23.60
2020,08,18,12,03,23.60
2020,08,18,12,04,23.70
2020,08,18,12,05,23.70
2020,08,18,12,06,23.70
2020,08,18,12,07,23.70
2020,08,18,12,08,23.60
2020,08,18,12,09,23.60
2020,08,18,12,10,23.50
2020,08,18,12,11,23.40
2020,08,18,12,12,23.40
2020,08,18,12,13,23.50
2020,08,18,12,14,23.60
2020,08,18,12,15,23.60
2020,08,18,12,16,23.70
2020,08,18,12,17,23.70
2020,08,18,12,18,23.70
2020,08,18,12,19,23.70
2020,08,18,12,20,23.60
2020,08,18,12,21,23.60
2020,08,18,12,22,23.60
2020,08,18,12,23,23.70
2020,08,18,12,24,23.70
2020,08,18,12,25,23.70
2020,08,18,12,26,23.70
2020,08,18,12,27,23.70
2020,08,18,12,28,23.60
2020,08,18,12,29,23.60
2020,08,18,12,30,23.60
2020,08,18,12,31,23.60
2020,08,18,12,32,23.60
2020,08,18,12,33,23.60
2020,08,18,12,34,23.70
2020,08,18,12,35,23.70
2020,08,18,12,36,23.70
2020,08,18,12,37,23.70
2020,08,18,12,38,23.70
2020,08,18,12,39,23.70
2020,08,18,12,40,23.70
2020,08,18,12,41,23.70
2020,08,18,12,42,23.80
2020,08,18,12,43,23.80
2020,08,18,12,44,23.80
2020,08,18,12,45,23.80
2020,08,18,12,46,23.90
2020,08,18,12,47,23.90
2020,08,18,12,48,24.00
2020,08,18,12,49,24.10
2020,08,18,12,50,24.10
2020,08,18,12,51,24.20
2020,08,18,12,52,24.20
2020,08,18,12,53,24.30
2020,08,18,12,54,24.30
2020,08,18,12,55,24.40
2020,08,18,12,56,24.40
2020,08,18,12,57,24.30
2020,08,18,12,58,24.20
2020,08,18,12,59,24.20
2020,08,18,13,00,24.20
2020,08,18,13,01,24.30
2020,08,18,13,02,24.30
2020,08,18,13,03,24.40
2020,08,18,13,04,24.40
2020,08,18,13,05,24.40
2020,08,18,13,06,24.50
2020,08,18,13,07,24.50
2020,08,18,13,08,24.50
2020,08,18,13,09,24.50
2020,08,18,13,10,24.50
2020,08,18,13,11,24.40
2020,08,18,13,12,24.30
2020,08,18,13,13,24.30
2020,08,18,13,14,24.30
2020,08,18,13,15,24.30
2020,08,18,13,16,24.30
2020,08,18,13,17,24.30
2020,08,18,13,18,24.40
2020,08,18,13,19,24.30
2020,08,18,13,20,24.30
2020,08,18,13,21,24.20
2020,08,18,13,22,24.10
2020,08,18,13,23,24.10
2020,08,18,13,24,24.10
2020,08,18,13,25,24.10
2020,08,18,13,26,24.10
2020,08,18,13,27,24.20
2020,08,18,13,28,24.20
2020,08,18,13,29,24.20
2020,08,18,13,30,24.20
2020,08,18,13,31,24.20
2020,08,18,13,32,24.20
2020,08,18,13,33,24.20
2020,08,18,13,34,24.20
2020,08,18,13,35,24.20
2020,08,18,13,36,24.20
2020,08,18,13,37,24.10
2020,08,18,13,38,24.10
2020,08,18,13,39,24.10
2020,08,18,13,40,24.10
2020,08,18,13,41,24.10
2020,08,18,13,42,24.10
2020,08,18,13,43,24.10
2020,08,18,13,44,24.10
2020,08,18,13,45,24.10
2020,08,18,13,46,24.10
2020,08,18,13,47,24.10
2020,08,18,13,48,24.00
2020,08,18,13,49,23.90
2020,08,18,13,50,23.90
2020,08,18,13,51,23.90
2020,08,18,13,52,23.90
2020,08,18,13,53,23.90
2020,08,18,13,54,23.90
2020,08,18,13,55,24.00
2020,08,18,13,56,24.10
2020,08,18,13,57,24.10
2020,08,18,13,58,24.10
2020,08,18,13,59,24.20
2020,08,18,14,00,24.30
2020,08,18,14,01,24.40
2020,08,18,14,02,24.40
2020,08,18,14,03,24.50
2020,08,18,14,04,24.50
2020,08,18,14,05,24.40
2020,08,18,14,06,24.40
2020,08,18,14,07,24.50
2020,08,18,14,08,24.50
2020,08,18,14,09,24.50
2020,08,18,14,10,24.50
2020,08,18,14,11,24.50
2020,08,18,14,12,24.50
2020,08,18,14,13,24.50
2020,08,18,14,14,24.50
2020,08,18,14,15,24.50
2020,08,18,14,16,24.40
2020,08,18,14,17,24.50
2020,08,18,14,18,24.50
2020,08,18,14,19,24.50
2020,08,18,14,20,24.50
2020,08,18,14,21,24.50
2020,08,18,14,22,24.50
2020,08,18,14,23,24.50
2020,08,18,14,24,24.40
2020,08,18,14,25,24.40
2020,08,18,14,26,24.40
2020,08,18,14,27,24.40
2020,08,18,14,28,24.40
2020,08,18,14,29,24.30
2020,08,18,14,30,24.20
2020,08,18,14,31,24.10
2020,08,18,14,32,24.10
2020,08,18,14,33,24.10
2020,08,18,14,34,24.00
2020,08,18,14,35,23.90
2020,08,18,14,36,23.90
2020,08,18,14,37,23.80
2020,08,18,14,38,23.80
2020,08,18,14,39,23.80
2020,08,18,14,40,23.70
2020,08,18,14,41,23.70
2020,08,18,14,42,23.70
2020,08,18,14,43,23.80
2020,08,18,14,44,23.80
2020,08,18,14,45,23.90
2020,08,18,14,46,23.90
2020,08,18,14,47,24.00
2020,08,18,14,48,24.10
2020,08,18,14,49,24.10
2020,08,18,14,50,24.10
2020,08,18,14,51,24.10
2020,08,18,14,52,24.10
2020,08,18,14,53,24.10
2020,08,18,14,54,24.10
2020,08,18,14,55,24.10
2020,08,18,14,56,24.10
2020,08,18,14,57,24.10
2020,08,18,14,58,24.10
2020,08,18,14,59,24.10
2020,08,18,15,00,24.10
2020,08,18,15,01,24.10
2020,08,18,15,02,24.10
2020,08,18,15,03,24.10
2020,08,18,15,04,24.10
2020,08,18,15,05,24.20
2020,08,18,15,06,24.20
2020,08,18,15,07,24.10
2020,08,18,15,08,24.10
2020,08,18,15,09,24.10
2020,08,18,15,10,24.10
2020,08,18,15,11,24.10
2020,08,18,15,12,24.10
2020,08,18,15,13,24.20
2020,08,18,15,14,24.30
2020,08,18,15,15,24.30
2020,08,18,15,16,24.40
2020,08,18,15,17,24.30
2020,08,18,15,18,24.30
2020,08,18,15,19,24.30
2020,08,18,15,20,24.30
2020,08,18,15,21,24.30
2020,08,18,15,22,24.30
2020,08,18,15,23,24.30
2020,08,18,15,24,24.30
2020,08,18,15,25,24.40
2020,08,18,15,26,24.40
2020,08,18,15,27,24.50
2020,08,18,15,28,24.60
2020,08,18,15,29,24.60
2020,08,18,15,30,24.60
2020,08,18,15,31,24.70
2020,08,18,15,32,24.70
2020,08,18,15,33,24.70
2020,08,18,15,34,24.60
2020,08,18,15,35,24.60
2020,08,18,15,36,24.60
2020,08,18,15,37,24.50
2020,08,18,15,38,24.40
2020,08,18,15,39,24.30
2020,08,18,15,40,24.30
2020,08,18,15,41,24.30
2020,08,18,15,42,24.20
2020,08,18,15,43,24.10
2020,08,18,15,44,24.10
2020,08,18,15,45,24.10
2020,08,18,15,46,24.10
2020,08,18,15,47,24.10
2020,08,18,15,48,24.10
2020,08,18,15,49,24.10
2020,08,18,15,50,24.10
2020,08,18,15,51,24.10
2020,08,18,15,52,24.10
2020,08,18,15,53,24.10
2020,08,18,15,54,24.10
2020,08,18,15,55,24.10
2020,08,18,15,56,24.10
2020,08,18,15,57,24.10
2020,08,18,15,58,24.10
2020,08,18,15,59,24.10
2020,08,18,16,00,24.10
2020,08,18,16,01,24.10
2020,08,18,16,02,24.10
2020,08,18,16,03,24.10
2020,08,18,16,04,24.10
2020,08,18,16,05,24.10
2020,08,18,16,06,24.10
2020,08,18,16,07,24.10
2020,08,18,16,08,24.10
2020,08,18,16,09,24.20
2020,08,18,16,10,24.20
2020,08,18,16,11,24.20
2020,08,18,16,12,24.30
2020,08,18,16,13,24.30
2020,08,18,16,14,24.30
2020,08,18,16,15,24.30
2020,08,18,16,16,24.20
2020,08,18,16,17,24.10
2020,08,18,16,18,24.10
2020,08,18,16,19,24.10
2020,08,18,16,20,24.10
2020,08,18,16,21,24.10
2020,08,18,16,22,24.10
2020,08,18,16,23,24.10
2020,08,18,16,24,24.00
2020,08,18,16,25,23.90
2020,08,18,16,26,23.80
2020,08,18,16,27,23.80
2020,08,18,16,28,23.70
2020,08,18,16,29,23.60
2020,08,18,16,30,23.40
2020,08,18,16,31,23.30
2020,08,18,16,32,23.30
2020,08,18,16,33,23.30
2020,08,18,16,34,23.30
2020,08,18,16,35,23.30
2020,08,18,16,36,23.30
2020,08,18,16,37,23.30
2020,08,18,16,38,23.30
2020,08,18,16,39,23.30
2020,08,18,16,40,23.30
2020,08,18,16,41,23.30
2020,08,18,16,42,23.30
2020,08,18,16,43,23.30
2020,08,18,16,44,23.30
2020,08,18,16,45,23.30
2020,08,18,16,46,23.40
2020,08,18,16,47,23.40
2020,08,18,16,48,23.40
2020,08,18,16,49,23.40
2020,08,18,16,50,23.40
2020,08,18,16,51,23.40
2020,08,18,16,52,23.40
2020,08,18,16,53,23.50
2020,08,18,16,54,23.60
2020,08,18,16,55,23.60
2020,08,18,16,56,23.70
2020,08,18,16,57,23.70
2020,08,18,16,58,23.70
2020,08,18,16,59,23.70
2020,08,18,17,00,23.70
2020,08,18,17,01,23.80
2020,08,18,17,02,23.80
2020,08,18,17,03,23.80
2020,08,18,17,04,23.80
2020,08,18,17,05,23.80
2020,08,18,17,06,23.70
2020,08,18,17,07,23.70
2020,08,18,17,08,23.60
2020,08,18,17,09,23.60
2020,08,18,17,10,23.60
2020,08,18,17,11,23.60
2020,08,18,17,12,23.60
2020,08,18,17,13,23.60
2020,08,18,17,14,23.60
2020,08,18,17,15,23.60
2020,08,18,17,16,23.70
2020,08,18,17,17,23.70
2020,08,18,17,18,23.70
2020,08,18,17,19,23.80